Orbital Elements at Epoch 2459000.5 (2020-May-31.0) TDB
Reference: JPL 22 (heliocentric ecliptic J2000)
Element | Value | Uncertainty (1-sigma) | Units |
e | .2560615011827104 | 6.1857e-08 | |
a | 2.551155920815116 | 1.1436e-08 | au |
q | 1.897903105980038 | 1.612e-07 | au |
i | 11.88987283480849 | 7.1222e-06 | deg |
node | 352.2118493132783 | 2.4678e-05 | deg |
peri | 287.6846529050905 | 2.7272e-05 | deg |
M | 350.0605466658027 | 1.2993e-05 | deg |
tp | 2459041.592629162104 (2020-Jul-11.09262916) | 5.377e-05 | TDB |
period | 1488.34608916168 4.07 | 1.0008e-05 2.74e-08 | d yr |
n | .2418792259552831 | 1.6264e-09 | deg/d |
Q | 3.204408735650194 | 1.4365e-08 | au |
|
| | Orbit Determination Parameters
Additional Information
|